Time,TemperatureF,DewpointF,PressureIn,WindDirection,WindDirectionDegrees,WindSpeedMPH,WindSpeedGustMPH,Humidity,HourlyPrecipIn,Conditions,Clouds,dailyrainin,SoftwareType,DateUTC
2013-03-17 00:00:00,56.2,52.4,29.84,WSW,255,14.0,15.0,87,0.00,,---,0.00,VWS V14.01,2013-03-17 04:00:00,
2013-03-17 00:05:00,56.1,52.3,29.84,West,259,15.0,15.0,87,0.00,,---,0.00,VWS V14.01,2013-03-17 04:05:00,
2013-03-17 00:10:00,56.0,52.2,29.84,WSW,255,12.0,15.0,87,0.00,,---,0.00,VWS V14.01,2013-03-17 04:10:00,
2013-03-17 00:15:00,55.9,52.4,29.84,WSW,255,14.0,16.0,88,0.00,,---,0.00,VWS V14.01,2013-03-17 04:15:00,
2013-03-17 00:20:00,55.9,52.4,29.84,West,260,13.0,15.0,88,0.00,,---,0.00,VWS V14.01,2013-03-17 04:20:00,
2013-03-17 00:25:00,55.9,52.4,29.84,WSW,258,12.0,14.0,88,0.00,,---,0.00,VWS V14.01,2013-03-17 04:25:00,
2013-03-17 00:30:00,55.9,52.4,29.84,West,259,12.0,14.0,88,0.00,,---,0.00,VWS V14.01,2013-03-17 04:30:00,
2013-03-17 00:35:00,55.9,52.4,29.84,WSW,258,12.0,13.0,88,0.00,,---,0.00,VWS V14.01,2013-03-17 04:35:00,
2013-03-17 00:40:00,55.8,52.3,29.84,WSW,257,12.0,14.0,88,0.00,,---,0.00,VWS V14.01,2013-03-17 04:40:00,
2013-03-17 00:45:00,55.8,52.3,29.84,WSW,257,12.0,13.0,88,0.00,,---,0.00,VWS V14.01,2013-03-17 04:45:00,
2013-03-17 00:50:00,55.8,52.3,29.84,WSW,253,12.0,12.0,88,0.00,,---,0.00,VWS V14.01,2013-03-17 04:50:00,
2013-03-17 00:55:00,55.7,52.2,29.84,WSW,247,11.0,13.0,88,0.00,,---,0.00,VWS V14.01,2013-03-17 04:55:00,
2013-03-17 01:00:00,55.7,52.2,29.84,WSW,246,12.0,12.0,88,0.00,,---,0.00,VWS V14.01,2013-03-17 05:00:00,
2013-03-17 01:05:00,55.6,52.4,29.84,WSW,246,12.0,12.0,89,0.00,,---,0.00,VWS V14.01,2013-03-17 05:05:00,
2013-03-17 01:10:00,55.5,52.3,29.84,WSW,248,12.0,13.0,89,0.00,,---,0.00,VWS V14.01,2013-03-17 05:10:00,
2013-03-17 01:15:00,55.5,52.3,29.84,WSW,254,12.0,13.0,89,0.00,,---,0.00,VWS V14.01,2013-03-17 05:15:00,
2013-03-17 01:20:00,55.5,52.3,29.84,WSW,250,13.0,16.0,89,0.00,,---,0.00,VWS V14.01,2013-03-17 05:20:00,
2013-03-17 01:25:00,55.5,52.3,29.84,WSW,244,13.0,15.0,89,0.00,,---,0.00,VWS V14.01,2013-03-17 05:25:00,
2013-03-17 01:30:00,55.6,52.4,29.84,WSW,248,14.0,15.0,89,0.00,,---,0.00,VWS V14.01,2013-03-17 05:30:00,
2013-03-17 01:35:00,55.6,52.4,29.84,WSW,255,16.0,16.0,89,0.00,,---,0.00,VWS V14.01,2013-03-17 05:35:00,
2013-03-17 01:40:00,55.6,52.4,29.84,WSW,257,15.0,17.0,89,0.00,,---,0.00,VWS V14.01,2013-03-17 05:40:00,
2013-03-17 01:45:00,55.7,52.5,29.84,WSW,258,14.0,17.0,89,0.00,,---,0.00,VWS V14.01,2013-03-17 05:45:00,
2013-03-17 01:50:00,55.7,52.5,29.84,West,260,15.0,16.0,89,0.00,,---,0.00,VWS V14.01,2013-03-17 05:50:00,
2013-03-17 01:55:00,55.7,52.5,29.84,West,259,13.0,16.0,89,0.00,,---,0.00,VWS V14.01,2013-03-17 05:55:00,
2013-03-17 02:00:00,55.7,52.5,29.84,WSW,257,15.0,16.0,89,0.00,,---,0.00,VWS V14.01,2013-03-17 06:00:00,
2013-03-17 02:05:00,55.7,52.5,29.84,WSW,257,14.0,16.0,89,0.00,,---,0.00,VWS V14.01,2013-03-17 06:05:00,
2013-03-17 02:10:00,55.7,52.5,29.84,West,259,13.0,16.0,89,0.00,,---,0.00,VWS V14.01,2013-03-17 06:10:00,
2013-03-17 02:15:00,55.6,52.4,29.85,WSW,257,13.0,14.0,89,0.00,,---,0.00,VWS V14.01,2013-03-17 06:15:00,
2013-03-17 02:20:00,55.5,52.3,29.85,West,262,12.0,13.0,89,0.00,,---,0.00,VWS V14.01,2013-03-17 06:20:00,
2013-03-17 02:25:00,55.5,52.3,29.85,West,259,13.0,13.0,89,0.00,,---,0.00,VWS V14.01,2013-03-17 06:25:00,
2013-03-17 02:30:00,55.5,52.3,29.85,WSW,256,13.0,15.0,89,0.00,,---,0.00,VWS V14.01,2013-03-17 06:30:00,
2013-03-17 02:35:00,55.5,52.3,29.85,WSW,258,12.0,15.0,89,0.00,,---,0.00,VWS V14.01,2013-03-17 06:35:00,
2013-03-17 02:40:00,55.4,52.2,29.85,West,261,13.0,14.0,89,0.00,,---,0.00,VWS V14.01,2013-03-17 06:40:00,
2013-03-17 02:45:00,55.4,52.2,29.85,West,260,13.0,14.0,89,0.00,,---,0.00,VWS V14.01,2013-03-17 06:45:00,
2013-03-17 02:50:00,55.3,52.1,29.85,WSW,252,13.0,14.0,89,0.00,,---,0.00,VWS V14.01,2013-03-17 06:50:00,
2013-03-17 02:55:00,55.3,52.1,29.85,WSW,254,14.0,15.0,89,0.00,,---,0.00,VWS V14.01,2013-03-17 06:55:00,
2013-03-17 03:00:00,55.3,52.1,29.85,West,259,14.0,14.0,89,0.00,,---,0.00,VWS V14.01,2013-03-17 07:00:00,
2013-03-17 03:05:00,55.3,52.1,29.86,West,264,12.0,14.0,89,0.00,,---,0.00,VWS V14.01,2013-03-17 07:05:00,
2013-03-17 03:10:00,55.2,52.0,29.86,West,260,12.0,14.0,89,0.00,,---,0.00,VWS V14.01,2013-03-17 07:10:00,
2013-03-17 03:15:00,55.1,52.2,29.86,West,264,10.0,13.0,90,0.00,,---,0.00,VWS V14.01,2013-03-17 07:15:00,
2013-03-17 03:20:00,55.0,52.1,29.86,West,263,7.0,12.0,90,0.00,,---,0.00,VWS V14.01,2013-03-17 07:20:00,
2013-03-17 03:25:00,54.8,51.9,29.86,West,270,10.0,10.0,90,0.00,,---,0.00,VWS V14.01,2013-03-17 07:25:00,
2013-03-17 03:30:00,54.8,51.9,29.86,West,263,9.0,10.0,90,0.00,,---,0.00,VWS V14.01,2013-03-17 07:30:00,
2013-03-17 03:35:00,54.8,51.9,29.86,West,264,10.0,12.0,90,0.00,,---,0.00,VWS V14.01,2013-03-17 07:35:00,
2013-03-17 03:40:00,54.8,51.9,29.86,West,268,6.0,10.0,90,0.00,,---,0.00,VWS V14.01,2013-03-17 07:40:00,
2013-03-17 03:45:00,54.6,51.7,29.85,West,265,7.0,9.0,90,0.00,,---,0.00,VWS V14.01,2013-03-17 07:45:00,
2013-03-17 03:50:00,54.6,52.0,29.85,West,263,7.0,8.0,91,0.00,,---,0.00,VWS V14.01,2013-03-17 07:50:00,
2013-03-17 03:55:00,54.5,51.9,29.85,West,264,7.0,8.0,91,0.00,,---,0.00,VWS V14.01,2013-03-17 07:55:00,
2013-03-17 04:00:00,54.4,51.8,29.85,West,263,7.0,9.0,91,0.00,,---,0.00,VWS V14.01,2013-03-17 08:00:00,
2013-03-17 04:05:00,54.4,51.8,29.85,WSW,257,8.0,9.0,91,0.00,,---,0.00,VWS V14.01,2013-03-17 08:05:00,
2013-03-17 04:10:00,54.5,51.9,29.85,West,259,7.0,8.0,91,0.00,,---,0.00,VWS V14.01,2013-03-17 08:10:00,
2013-03-17 04:15:00,54.5,51.9,29.85,WSW,258,8.0,9.0,91,0.00,,---,0.00,VWS V14.01,2013-03-17 08:15:00,
2013-03-17 04:20:00,54.5,51.9,29.85,WSW,258,7.0,9.0,91,0.00,,---,0.00,VWS V14.01,2013-03-17 08:20:00,
2013-03-17 04:25:00,54.5,51.9,29.85,WSW,252,8.0,8.0,91,0.00,,---,0.00,VWS V14.01,2013-03-17 08:25:00,
2013-03-17 04:30:00,54.5,51.9,29.85,WSW,250,7.0,9.0,91,0.00,,---,0.00,VWS V14.01,2013-03-17 08:30:00,
2013-03-17 04:35:00,54.5,51.9,29.85,WSW,248,7.0,8.0,91,0.00,,---,0.00,VWS V14.01,2013-03-17 08:35:00,
2013-03-17 04:40:00,54.4,51.8,29.85,WSW,247,7.0,8.0,91,0.00,,---,0.00,VWS V14.01,2013-03-17 08:40:00,
2013-03-17 04:45:00,54.5,51.9,29.85,WSW,246,8.0,8.0,91,0.00,,---,0.00,VWS V14.01,2013-03-17 08:45:00,
2013-03-17 04:50:00,54.4,51.8,29.85,WSW,257,8.0,9.0,91,0.00,,---,0.00,VWS V14.01,2013-03-17 08:50:00,
2013-03-17 04:55:00,54.4,51.8,29.85,WSW,253,9.0,9.0,91,0.00,,---,0.00,VWS V14.01,2013-03-17 08:55:00,
2013-03-17 05:00:00,54.3,51.7,29.85,West,260,5.0,8.0,91,0.00,,---,0.00,VWS V14.01,2013-03-17 09:00:00,
2013-03-17 05:05:00,54.2,51.6,29.86,West,260,8.0,9.0,91,0.00,,---,0.00,VWS V14.01,2013-03-17 09:05:00,
2013-03-17 05:10:00,54.2,51.9,29.86,West,261,7.0,9.0,92,0.00,,---,0.00,VWS V14.01,2013-03-17 09:10:00,
2013-03-17 05:15:00,54.2,51.9,29.86,West,260,8.0,9.0,92,0.00,,---,0.00,VWS V14.01,2013-03-17 09:15:00,
2013-03-17 05:20:00,54.2,51.6,29.86,West,266,7.0,9.0,91,0.00,,---,0.00,VWS V14.01,2013-03-17 09:20:00,
2013-03-17 05:25:00,54.0,51.7,29.86,West,263,6.0,7.0,92,0.00,,---,0.00,VWS V14.01,2013-03-17 09:25:00,
2013-03-17 05:30:00,54.1,51.5,29.86,West,270,6.0,8.0,91,0.00,,---,0.00,VWS V14.01,2013-03-17 09:30:00,
2013-03-17 05:35:00,53.9,51.3,29.87,West,259,5.0,7.0,91,0.00,,---,0.00,VWS V14.01,2013-03-17 09:35:00,
2013-03-17 05:40:00,53.9,51.6,29.87,West,260,7.0,8.0,92,0.00,,---,0.00,VWS V14.01,2013-03-17 09:40:00,
2013-03-17 05:45:00,54.1,51.8,29.87,West,260,9.0,10.0,92,0.00,,---,0.00,VWS V14.01,2013-03-17 09:45:00,
2013-03-17 05:50:00,54.2,51.9,29.88,West,259,9.0,10.0,92,0.00,,---,0.00,VWS V14.01,2013-03-17 09:50:00,
2013-03-17 05:55:00,54.2,51.9,29.88,WSW,257,9.0,9.0,92,0.00,,---,0.00,VWS V14.01,2013-03-17 09:55:00,
2013-03-17 06:00:00,54.3,52.0,29.88,West,263,9.0,9.0,92,0.00,,---,0.00,VWS V14.01,2013-03-17 10:00:00,
2013-03-17 06:05:00,54.3,52.0,29.88,West,264,7.0,8.0,92,0.00,,---,0.00,VWS V14.01,2013-03-17 10:05:00,
2013-03-17 06:10:00,54.2,51.6,29.89,West,263,5.0,7.0,91,0.00,,---,0.00,VWS V14.01,2013-03-17 10:10:00,
2013-03-17 06:15:00,54.0,51.7,29.89,West,267,7.0,8.0,92,0.00,,---,0.00,VWS V14.01,2013-03-17 10:15:00,
2013-03-17 06:20:00,53.9,51.3,29.89,West,270,7.0,7.0,91,0.00,,---,0.00,VWS V14.01,2013-03-17 10:20:00,
2013-03-17 06:25:00,54.0,51.4,29.89,West,261,7.0,8.0,91,0.00,,---,0.00,VWS V14.01,2013-03-17 10:25:00,
2013-03-17 06:30:00,54.1,51.8,29.90,WSW,257,8.0,8.0,92,0.00,,---,0.00,VWS V14.01,2013-03-17 10:30:00,
2013-03-17 06:35:00,54.3,52.0,29.90,WSW,256,8.0,9.0,92,0.00,,---,0.00,VWS V14.01,2013-03-17 10:35:00,
2013-03-17 06:40:00,54.4,51.8,29.90,WSW,256,8.0,8.0,91,0.00,,---,0.00,VWS V14.01,2013-03-17 10:40:00,
2013-03-17 06:45:00,54.4,51.8,29.90,WSW,257,7.0,8.0,91,0.00,,---,0.00,VWS V14.01,2013-03-17 10:45:00,
2013-03-17 06:50:00,54.3,51.7,29.90,West,263,4.0,7.0,91,0.00,,---,0.00,VWS V14.01,2013-03-17 10:50:00,
2013-03-17 06:55:00,54.1,51.5,29.90,West,266,3.0,4.0,91,0.00,,---,0.00,VWS V14.01,2013-03-17 10:55:00,
2013-03-17 07:00:00,54.0,51.4,29.90,West,269,2.0,5.0,91,0.00,,---,0.00,VWS V14.01,2013-03-17 11:00:00,
2013-03-17 07:05:00,53.7,51.1,29.92,NE,51,8.0,11.0,91,0.00,,---,0.00,VWS V14.01,2013-03-17 11:05:00,
2013-03-17 07:10:00,53.2,50.7,29.92,North,10,5.0,10.0,91,0.00,,---,0.00,VWS V14.01,2013-03-17 11:10:00,
2013-03-17 07:15:00,53.1,50.2,29.92,NNW,342,0.0,6.0,90,0.00,,---,0.00,VWS V14.01,2013-03-17 11:15:00,
2013-03-17 07:20:00,53.1,50.2,29.93,NE,55,3.0,9.0,90,0.00,,---,0.00,VWS V14.01,2013-03-17 11:20:00,
2013-03-17 07:25:00,53.1,50.0,29.93,NE,34,4.0,5.0,89,0.00,,---,0.00,VWS V14.01,2013-03-17 11:25:00,
2013-03-17 07:30:00,53.2,49.7,29.93,ENE,57,4.0,4.0,88,0.00,,---,0.00,VWS V14.01,2013-03-17 11:30:00,
2013-03-17 07:35:00,53.2,49.7,29.93,ENE,78,0.0,3.0,88,0.00,,---,0.00,VWS V14.01,2013-03-17 11:35:00,
2013-03-17 07:40:00,53.2,49.7,29.93,ENE,78,0.0,0.0,88,0.00,,---,0.00,VWS V14.01,2013-03-17 11:40:00,
2013-03-17 07:45:00,53.2,49.4,29.94,ENE,72,0.0,1.0,87,0.00,,---,0.00,VWS V14.01,2013-03-17 11:45:00,
2013-03-17 07:50:00,53.5,50.0,29.94,ESE,107,1.0,2.0,88,0.00,,---,0.00,VWS V14.01,2013-03-17 11:50:00,
2013-03-17 07:55:00,53.9,50.4,29.93,ESE,110,0.0,0.0,88,0.00,,---,0.00,VWS V14.01,2013-03-17 11:55:00,
2013-03-17 08:00:00,54.2,50.7,29.93,ESE,110,0.0,0.0,88,0.00,,---,0.00,VWS V14.01,2013-03-17 12:00:00,
2013-03-17 08:05:00,54.7,51.2,29.93,ESE,113,0.0,0.0,88,0.00,,---,0.00,VWS V14.01,2013-03-17 12:05:00,
2013-03-17 08:10:00,55.1,51.6,29.94,ESE,113,0.0,0.0,88,0.00,,---,0.00,VWS V14.01,2013-03-17 12:10:00,
2013-03-17 08:15:00,55.2,51.4,29.94,East,86,0.0,1.0,87,0.00,,---,0.00,VWS V14.01,2013-03-17 12:15:00,
2013-03-17 08:20:00,55.4,51.6,29.94,East,86,0.0,0.0,87,0.00,,---,0.00,VWS V14.01,2013-03-17 12:20:00,
2013-03-17 08:25:00,55.6,51.8,29.94,East,85,0.0,0.0,87,0.00,,---,0.00,VWS V14.01,2013-03-17 12:25:00,
2013-03-17 08:30:00,55.5,51.7,29.94,ENE,69,5.0,8.0,87,0.00,,---,0.00,VWS V14.01,2013-03-17 12:30:00,
2013-03-17 08:35:00,55.7,51.6,29.95,ENE,77,7.0,10.0,86,0.00,,---,0.00,VWS V14.01,2013-03-17 12:35:00,
2013-03-17 08:40:00,55.4,51.0,29.95,ENE,78,10.0,16.0,85,0.00,,---,0.00,VWS V14.01,2013-03-17 12:40:00,
2013-03-17 08:45:00,54.9,50.5,29.95,East,97,11.0,14.0,85,0.00,,---,0.00,VWS V14.01,2013-03-17 12:45:00,
2013-03-17 08:50:00,54.6,50.5,29.95,East,79,9.0,15.0,86,0.00,,---,0.00,VWS V14.01,2013-03-17 12:50:00,
2013-03-17 08:55:00,54.3,50.2,29.96,ENE,73,14.0,16.0,86,0.00,,---,0.00,VWS V14.01,2013-03-17 12:55:00,
2013-03-17 09:00:00,53.6,50.1,29.96,East,81,13.0,17.0,88,0.00,,---,0.00,VWS V14.01,2013-03-17 13:00:00,
2013-03-17 09:05:00,52.9,49.8,29.96,East,96,14.0,16.0,89,0.00,,---,0.00,VWS V14.01,2013-03-17 13:05:00,
2013-03-17 09:10:00,52.5,49.7,29.97,East,86,13.0,16.0,90,0.00,,---,0.00,VWS V14.01,2013-03-17 13:10:00,
2013-03-17 09:15:00,52.2,49.7,29.97,East,94,13.0,15.0,91,0.00,,---,0.00,VWS V14.01,2013-03-17 13:15:00,
2013-03-17 09:20:00,52.1,49.6,29.97,East,88,11.0,15.0,91,0.00,,---,0.00,VWS V14.01,2013-03-17 13:20:00,
2013-03-17 09:25:00,51.9,49.7,29.97,East,84,15.0,16.0,92,0.00,,---,0.00,VWS V14.01,2013-03-17 13:25:00,
2013-03-17 09:30:00,52.1,49.8,29.98,East,84,13.0,15.0,92,0.00,,---,0.00,VWS V14.01,2013-03-17 13:30:00,
2013-03-17 09:35:00,52.2,50.2,29.97,East,98,14.0,15.0,93,0.00,,---,0.00,VWS V14.01,2013-03-17 13:35:00,
2013-03-17 09:40:00,52.3,50.3,29.97,East,79,14.0,14.0,93,0.00,,---,0.00,VWS V14.01,2013-03-17 13:40:00,
2013-03-17 09:45:00,52.3,50.3,29.98,East,94,10.0,13.0,93,0.00,,---,0.00,VWS V14.01,2013-03-17 13:45:00,
2013-03-17 09:50:00,52.4,50.4,29.98,East,98,11.0,13.0,93,0.00,,---,0.00,VWS V14.01,2013-03-17 13:50:00,
2013-03-17 09:55:00,52.5,50.5,29.98,East,96,10.0,15.0,93,0.00,,---,0.00,VWS V14.01,2013-03-17 13:55:00,
2013-03-17 10:00:00,52.5,50.5,29.98,East,91,13.0,15.0,93,0.00,,---,0.00,VWS V14.01,2013-03-17 14:00:00,
2013-03-17 10:05:00,52.3,50.3,29.97,ESE,107,13.0,15.0,93,0.00,,---,0.00,VWS V14.01,2013-03-17 14:05:00,
2013-03-17 10:10:00,52.2,50.2,29.97,ESE,107,14.0,15.0,93,0.00,,---,0.00,VWS V14.01,2013-03-17 14:10:00,
2013-03-17 10:15:00,52.1,50.1,29.97,ESE,103,15.0,18.0,93,0.00,,---,0.00,VWS V14.01,2013-03-17 14:15:00,
2013-03-17 10:20:00,52.2,50.2,29.98,ESE,105,15.0,17.0,93,0.00,,---,0.00,VWS V14.01,2013-03-17 14:20:00,
2013-03-17 10:25:00,52.3,50.3,29.98,ESE,107,15.0,15.0,93,0.00,,---,0.00,VWS V14.01,2013-03-17 14:25:00,
2013-03-17 10:30:00,52.5,50.5,29.98,ESE,102,13.0,14.0,93,0.00,,---,0.00,VWS V14.01,2013-03-17 14:30:00,
2013-03-17 10:35:00,52.7,50.7,29.98,ESE,109,10.0,13.0,93,0.00,,---,0.00,VWS V14.01,2013-03-17 14:35:00,
2013-03-17 10:40:00,52.9,50.9,29.98,ESE,111,12.0,13.0,93,0.00,,---,0.00,VWS V14.01,2013-03-17 14:40:00,
2013-03-17 10:45:00,53.2,50.9,29.98,ESE,114,11.0,12.0,92,0.00,,---,0.00,VWS V14.01,2013-03-17 14:45:00,
2013-03-17 10:50:00,53.4,51.1,29.98,ESE,123,9.0,11.0,92,0.00,,---,0.00,VWS V14.01,2013-03-17 14:50:00,
2013-03-17 10:55:00,53.5,51.2,29.98,SE,131,10.0,10.0,92,0.00,,---,0.00,VWS V14.01,2013-03-17 14:55:00,
2013-03-17 11:00:00,53.6,51.3,29.99,SE,135,8.0,9.0,92,0.00,,---,0.00,VWS V14.01,2013-03-17 15:00:00,
2013-03-17 11:05:00,53.7,51.4,29.99,SE,132,8.0,9.0,92,0.00,,---,0.00,VWS V14.01,2013-03-17 15:05:00,
2013-03-17 11:10:00,53.6,51.3,29.99,SE,136,9.0,9.0,92,0.00,,---,0.00,VWS V14.01,2013-03-17 15:10:00,
2013-03-17 11:15:00,53.5,51.2,29.99,SE,136,9.0,9.0,92,0.00,,---,0.00,VWS V14.01,2013-03-17 15:15:00,
2013-03-17 11:20:00,53.6,51.3,29.99,SE,138,8.0,9.0,92,0.00,,---,0.00,VWS V14.01,2013-03-17 15:20:00,
2013-03-17 11:25:00,53.7,51.4,29.99,SE,137,10.0,10.0,92,0.00,,---,0.00,VWS V14.01,2013-03-17 15:25:00,
2013-03-17 11:30:00,53.7,51.4,29.99,SE,128,8.0,10.0,92,0.00,,---,0.00,VWS V14.01,2013-03-17 15:30:00,
2013-03-17 11:35:00,53.9,51.6,29.99,ESE,123,9.0,10.0,92,0.00,,---,0.00,VWS V14.01,2013-03-17 15:35:00,
2013-03-17 11:40:00,53.8,51.5,29.99,ESE,122,12.0,12.0,92,0.00,,---,0.00,VWS V14.01,2013-03-17 15:40:00,
2013-03-17 11:45:00,53.9,51.6,29.99,ESE,123,13.0,13.0,92,0.00,,---,0.00,VWS V14.01,2013-03-17 15:45:00,
2013-03-17 11:50:00,53.8,51.2,29.99,ESE,123,12.0,13.0,91,0.00,,---,0.00,VWS V14.01,2013-03-17 15:50:00,
2013-03-17 11:55:00,53.9,51.3,29.99,ESE,118,13.0,14.0,91,0.00,,---,0.00,VWS V14.01,2013-03-17 15:55:00,
2013-03-17 12:00:00,53.9,51.3,29.99,ESE,117,14.0,14.0,91,0.00,,---,0.00,VWS V14.01,2013-03-17 16:00:00,
2013-03-17 12:05:00,53.7,51.1,29.99,ESE,117,12.0,16.0,91,0.00,,---,0.00,VWS V14.01,2013-03-17 16:05:00,
2013-03-17 12:10:00,53.7,51.1,29.99,ESE,119,13.0,15.0,91,0.00,,---,0.00,VWS V14.01,2013-03-17 16:10:00,
2013-03-17 12:15:00,53.7,51.1,29.99,ESE,119,14.0,15.0,91,0.00,,---,0.00,VWS V14.01,2013-03-17 16:15:00,
2013-03-17 12:20:00,53.6,51.0,29.99,ESE,117,15.0,17.0,91,0.00,,---,0.00,VWS V14.01,2013-03-17 16:20:00,
2013-03-17 12:25:00,53.7,51.1,29.99,ESE,119,15.0,16.0,91,0.00,,---,0.00,VWS V14.01,2013-03-17 16:25:00,
2013-03-17 12:30:00,53.7,51.1,29.99,ESE,119,15.0,17.0,91,0.00,,---,0.00,VWS V14.01,2013-03-17 16:30:00,
2013-03-17 12:35:00,53.9,51.3,29.99,ESE,119,14.0,17.0,91,0.00,,---,0.00,VWS V14.01,2013-03-17 16:35:00,
2013-03-17 12:40:00,54.0,51.4,29.99,ESE,119,16.0,17.0,91,0.00,,---,0.00,VWS V14.01,2013-03-17 16:40:00,
2013-03-17 12:45:00,54.1,51.8,29.99,ESE,117,15.0,17.0,92,0.00,,---,0.00,VWS V14.01,2013-03-17 16:45:00,
2013-03-17 12:50:00,54.3,52.0,29.99,ESE,117,15.0,17.0,92,0.00,,---,0.00,VWS V14.01,2013-03-17 16:50:00,
2013-03-17 12:55:00,54.6,52.3,29.99,ESE,121,18.0,18.0,92,0.00,,---,0.00,VWS V14.01,2013-03-17 16:55:00,
2013-03-17 13:00:00,54.8,52.5,30.00,ESE,118,16.0,16.0,92,0.00,,---,0.00,VWS V14.01,2013-03-17 17:00:00,
2013-03-17 13:05:00,54.9,52.6,30.00,ESE,118,16.0,16.0,92,0.00,,---,0.00,VWS V14.01,2013-03-17 17:05:00,
2013-03-17 13:10:00,55.0,52.7,29.99,ESE,122,16.0,16.0,92,0.00,,---,0.00,VWS V14.01,2013-03-17 17:10:00,
2013-03-17 13:15:00,55.2,52.9,29.99,ESE,115,15.0,17.0,92,0.00,,---,0.00,VWS V14.01,2013-03-17 17:15:00,
2013-03-17 13:20:00,55.3,52.7,29.99,ESE,118,16.0,17.0,91,0.00,,---,0.00,VWS V14.01,2013-03-17 17:20:00,
2013-03-17 13:25:00,55.3,52.7,30.00,ESE,114,14.0,16.0,91,0.00,,---,0.00,VWS V14.01,2013-03-17 17:25:00,
2013-03-17 13:30:00,55.3,52.7,29.99,ESE,110,14.0,16.0,91,0.00,,---,0.00,VWS V14.01,2013-03-17 17:30:00,
2013-03-17 13:35:00,55.6,52.7,29.99,ESE,109,14.0,16.0,90,0.00,,---,0.00,VWS V14.01,2013-03-17 17:35:00,
2013-03-17 13:40:00,55.7,52.8,29.99,ESE,111,15.0,15.0,90,0.00,,---,0.00,VWS V14.01,2013-03-17 17:40:00,
2013-03-17 13:45:00,55.8,52.9,29.99,ESE,107,14.0,16.0,90,0.00,,---,0.00,VWS V14.01,2013-03-17 17:45:00,
2013-03-17 13:50:00,55.9,53.0,29.99,ESE,105,20.0,20.0,90,0.00,,---,0.00,VWS V14.01,2013-03-17 17:50:00,
2013-03-17 13:55:00,56.7,53.8,29.99,East,86,16.0,21.0,90,0.00,,---,0.00,VWS V14.01,2013-03-17 17:55:00,
2013-03-17 14:00:00,57.1,53.9,29.99,East,82,15.0,22.0,89,0.00,,---,0.00,VWS V14.01,2013-03-17 18:00:00,
2013-03-17 14:05:00,57.2,53.7,29.99,ESE,109,14.0,18.0,88,0.00,,---,0.00,VWS V14.01,2013-03-17 18:05:00,
2013-03-17 14:10:00,56.2,52.7,29.99,ESE,120,15.0,15.0,88,0.00,,---,0.00,VWS V14.01,2013-03-17 18:10:00,
2013-03-17 14:15:00,55.5,52.3,29.99,ESE,120,13.0,16.0,89,0.00,,---,0.00,VWS V14.01,2013-03-17 18:15:00,
2013-03-17 14:20:00,55.6,52.7,29.99,East,94,15.0,21.0,90,0.00,,---,0.00,VWS V14.01,2013-03-17 18:20:00,
2013-03-17 14:25:00,57.7,54.2,29.98,ENE,74,11.0,17.0,88,0.00,,---,0.00,VWS V14.01,2013-03-17 18:25:00,
2013-03-17 14:30:00,58.6,53.8,29.98,East,79,10.0,13.0,84,0.00,,---,0.00,VWS V14.01,2013-03-17 18:30:00,
2013-03-17 14:35:00,58.5,52.0,29.98,East,86,10.0,19.0,79,0.00,,---,0.00,VWS V14.01,2013-03-17 18:35:00,
2013-03-17 14:40:00,58.4,51.6,29.98,East,92,11.0,14.0,78,0.00,,---,0.00,VWS V14.01,2013-03-17 18:40:00,
2013-03-17 14:45:00,58.5,51.3,29.98,ENE,68,14.0,16.0,77,0.00,,---,0.00,VWS V14.01,2013-03-17 18:45:00,
2013-03-17 14:50:00,58.5,51.7,29.98,NE,54,10.0,17.0,78,0.00,,---,0.00,VWS V14.01,2013-03-17 18:50:00,
2013-03-17 14:55:00,57.9,51.1,29.98,ENE,72,12.0,19.0,78,0.00,,---,0.00,VWS V14.01,2013-03-17 18:55:00,
2013-03-17 15:00:00,57.6,51.5,29.98,ENE,67,13.0,17.0,80,0.00,,---,0.00,VWS V14.01,2013-03-17 19:00:00,
2013-03-17 15:05:00,57.0,50.6,29.97,East,93,13.0,19.0,79,0.00,,---,0.00,VWS V14.01,2013-03-17 19:05:00,
2013-03-17 15:10:00,56.9,50.5,29.97,ESE,106,14.0,19.0,79,0.00,,---,0.00,VWS V14.01,2013-03-17 19:10:00,
2013-03-17 15:15:00,56.8,50.0,29.97,ESE,103,11.0,23.0,78,0.00,,---,0.00,VWS V14.01,2013-03-17 19:15:00,
2013-03-17 15:20:00,57.0,49.5,29.97,East,80,15.0,18.0,76,0.00,,---,0.00,VWS V14.01,2013-03-17 19:20:00,
2013-03-17 15:25:00,57.4,49.5,29.97,East,89,13.0,17.0,75,0.00,,---,0.00,VWS V14.01,2013-03-17 19:25:00,
2013-03-17 15:30:00,57.8,49.6,29.97,ENE,57,11.0,18.0,74,0.00,,---,0.00,VWS V14.01,2013-03-17 19:30:00,
2013-03-17 15:35:00,57.9,49.3,29.97,ENE,65,14.0,16.0,73,0.00,,---,0.00,VWS V14.01,2013-03-17 19:35:00,
2013-03-17 15:40:00,58.0,49.4,29.96,East,82,14.0,19.0,73,0.00,,---,0.00,VWS V14.01,2013-03-17 19:40:00,
2013-03-17 15:45:00,57.9,49.3,29.96,ENE,67,8.0,18.0,73,0.00,,---,0.00,VWS V14.01,2013-03-17 19:45:00,
2013-03-17 15:50:00,58.3,49.3,29.97,ENE,75,14.0,18.0,72,0.00,,---,0.00,VWS V14.01,2013-03-17 19:50:00,
2013-03-17 15:55:00,58.1,49.5,29.97,East,81,14.0,20.0,73,0.00,,---,0.00,VWS V14.01,2013-03-17 19:55:00,
2013-03-17 16:00:00,58.3,49.7,29.97,East,88,16.0,17.0,73,0.00,,---,0.00,VWS V14.01,2013-03-17 20:00:00,
2013-03-17 16:05:00,58.0,49.8,29.97,East,92,9.0,18.0,74,0.00,,---,0.00,VWS V14.01,2013-03-17 20:05:00,
2013-03-17 16:10:00,58.0,49.8,29.97,ENE,77,18.0,18.0,74,0.00,,---,0.00,VWS V14.01,2013-03-17 20:10:00,
2013-03-17 16:15:00,57.7,49.1,29.97,ENE,71,12.0,21.0,73,0.00,,---,0.00,VWS V14.01,2013-03-17 20:15:00,
2013-03-17 16:20:00,57.5,49.3,29.98,ENE,78,14.0,19.0,74,0.00,,---,0.00,VWS V14.01,2013-03-17 20:20:00,
2013-03-17 16:25:00,57.5,49.3,29.98,East,86,19.0,19.0,74,0.00,,---,0.00,VWS V14.01,2013-03-17 20:25:00,
2013-03-17 16:30:00,57.2,49.0,29.98,East,101,15.0,17.0,74,0.00,,---,0.00,VWS V14.01,2013-03-17 20:30:00,
2013-03-17 16:35:00,56.9,49.1,29.98,East,96,16.0,22.0,75,0.00,,---,0.00,VWS V14.01,2013-03-17 20:35:00,
2013-03-17 16:40:00,56.4,48.2,29.98,East,82,16.0,22.0,74,0.00,,---,0.00,VWS V14.01,2013-03-17 20:40:00,
2013-03-17 16:45:00,56.2,48.4,29.98,ENE,78,14.0,20.0,75,0.00,,---,0.00,VWS V14.01,2013-03-17 20:45:00,
2013-03-17 16:50:00,56.1,48.3,29.99,ENE,75,12.0,21.0,75,0.00,,---,0.00,VWS V14.01,2013-03-17 20:50:00,
2013-03-17 16:55:00,55.5,47.7,29.99,East,94,18.0,22.0,75,0.00,,---,0.00,VWS V14.01,2013-03-17 20:55:00,
2013-03-17 17:00:00,55.0,47.9,30.00,East,100,14.0,19.0,77,0.00,,---,0.00,VWS V14.01,2013-03-17 21:00:00,
2013-03-17 17:05:00,54.9,47.8,30.00,ENE,76,20.0,21.0,77,0.00,,---,0.00,VWS V14.01,2013-03-17 21:05:00,
2013-03-17 17:10:00,54.3,47.2,30.00,East,84,17.0,21.0,77,0.00,,---,0.00,VWS V14.01,2013-03-17 21:10:00,
2013-03-17 17:15:00,54.0,47.6,30.00,East,97,15.0,19.0,79,0.00,,---,0.00,VWS V14.01,2013-03-17 21:15:00,
2013-03-17 17:20:00,53.7,47.3,30.00,East,84,16.0,22.0,79,0.00,,---,0.00,VWS V14.01,2013-03-17 21:20:00,
2013-03-17 17:25:00,53.2,46.9,30.00,East,89,15.0,21.0,79,0.00,,---,0.00,VWS V14.01,2013-03-17 21:25:00,
2013-03-17 17:30:00,52.8,47.1,30.01,ENE,63,12.0,21.0,81,0.00,,---,0.00,VWS V14.01,2013-03-17 21:30:00,
2013-03-17 17:35:00,52.6,46.6,30.01,ENE,78,15.0,21.0,80,0.00,,---,0.00,VWS V14.01,2013-03-17 21:35:00,
2013-03-17 17:40:00,52.6,47.3,30.01,East,86,15.0,16.0,82,0.00,,---,0.00,VWS V14.01,2013-03-17 21:40:00,
2013-03-17 17:45:00,52.4,47.1,30.01,ENE,74,14.0,17.0,82,0.00,,---,0.00,VWS V14.01,2013-03-17 21:45:00,
2013-03-17 17:50:00,52.2,46.5,30.01,NE,56,11.0,17.0,81,0.00,,---,0.00,VWS V14.01,2013-03-17 21:50:00,
2013-03-17 17:55:00,52.2,46.5,30.02,ENE,71,13.0,15.0,81,0.00,,---,0.00,VWS V14.01,2013-03-17 21:55:00,
2013-03-17 18:00:00,51.9,46.3,30.02,ENE,67,7.0,16.0,81,0.00,,---,0.00,VWS V14.01,2013-03-17 22:00:00,
2013-03-17 18:05:00,51.7,46.4,30.02,East,81,14.0,17.0,82,0.00,,---,0.00,VWS V14.01,2013-03-17 22:05:00,
2013-03-17 18:10:00,51.5,46.2,30.02,East,81,10.0,15.0,82,0.00,,---,0.00,VWS V14.01,2013-03-17 22:10:00,
2013-03-17 18:15:00,51.3,46.3,30.03,ENE,74,11.0,15.0,83,0.00,,---,0.00,VWS V14.01,2013-03-17 22:15:00,
2013-03-17 18:20:00,51.1,46.1,30.03,ENE,78,11.0,16.0,83,0.00,,---,0.00,VWS V14.01,2013-03-17 22:20:00,
2013-03-17 18:25:00,51.1,46.1,30.03,East,82,11.0,15.0,83,0.00,,---,0.00,VWS V14.01,2013-03-17 22:25:00,
2013-03-17 18:30:00,51.0,46.0,30.04,ENE,67,5.0,15.0,83,0.00,,---,0.00,VWS V14.01,2013-03-17 22:30:00,
2013-03-17 18:35:00,50.9,45.9,30.04,ENE,76,10.0,13.0,83,0.00,,---,0.00,VWS V14.01,2013-03-17 22:35:00,
2013-03-17 18:40:00,50.8,46.2,30.04,ENE,69,5.0,13.0,84,0.00,,---,0.00,VWS V14.01,2013-03-17 22:40:00,
2013-03-17 18:45:00,50.8,46.2,30.05,East,90,7.0,14.0,84,0.00,,---,0.00,VWS V14.01,2013-03-17 22:45:00,
2013-03-17 18:50:00,50.7,46.0,30.05,ENE,76,11.0,15.0,84,0.00,,---,0.00,VWS V14.01,2013-03-17 22:50:00,
2013-03-17 18:55:00,50.5,45.8,30.05,ENE,71,13.0,19.0,84,0.00,,---,0.00,VWS V14.01,2013-03-17 22:55:00,
2013-03-17 19:00:00,50.4,45.8,30.05,ENE,58,12.0,15.0,84,0.00,,---,0.00,VWS V14.01,2013-03-17 23:00:00,
2013-03-17 19:05:00,50.4,45.8,30.06,ENE,73,11.0,18.0,84,0.00,,---,0.00,VWS V14.01,2013-03-17 23:05:00,
2013-03-17 19:10:00,50.2,45.6,30.06,NE,56,9.0,15.0,84,0.00,,---,0.00,VWS V14.01,2013-03-17 23:10:00,
2013-03-17 19:15:00,50.1,45.5,30.07,ENE,57,15.0,15.0,84,0.00,,---,0.00,VWS V14.01,2013-03-17 23:15:00,
2013-03-17 19:20:00,49.9,45.3,30.06,East,96,15.0,18.0,84,0.00,,---,0.00,VWS V14.01,2013-03-17 23:20:00,
2013-03-17 19:25:00,49.9,45.3,30.07,ENE,64,12.0,16.0,84,0.00,,---,0.00,VWS V14.01,2013-03-17 23:25:00,
2013-03-17 19:30:00,49.6,45.0,30.07,ENE,75,13.0,21.0,84,0.00,,---,0.00,VWS V14.01,2013-03-17 23:30:00,
2013-03-17 19:35:00,49.5,44.9,30.07,ENE,68,9.0,15.0,84,0.00,,---,0.00,VWS V14.01,2013-03-17 23:35:00,
2013-03-17 19:40:00,49.4,44.8,30.06,East,79,14.0,15.0,84,0.00,,---,0.00,VWS V14.01,2013-03-17 23:40:00,
2013-03-17 19:45:00,49.4,45.1,30.06,ENE,71,16.0,20.0,85,0.00,,---,0.00,VWS V14.01,2013-03-17 23:45:00,
2013-03-17 19:50:00,49.2,44.9,30.07,ENE,77,14.0,15.0,85,0.00,,---,0.00,VWS V14.01,2013-03-17 23:50:00,
2013-03-17 19:55:00,49.2,44.9,30.07,ENE,75,11.0,18.0,85,0.00,,---,0.00,VWS V14.01,2013-03-17 23:55:00,
2013-03-17 20:00:00,49.1,44.8,30.07,ENE,62,12.0,19.0,85,0.00,,---,0.00,VWS V14.01,2013-03-18 00:00:00,
2013-03-17 20:05:00,49.0,44.7,30.07,East,86,13.0,17.0,85,0.00,,---,0.00,VWS V14.01,2013-03-18 00:05:00,
2013-03-17 20:10:00,48.9,44.6,30.07,ENE,67,17.0,21.0,85,0.00,,---,0.00,VWS V14.01,2013-03-18 00:10:00,
2013-03-17 20:15:00,48.9,44.9,30.07,ENE,67,8.0,18.0,86,0.00,,---,0.00,VWS V14.01,2013-03-18 00:15:00,
2013-03-17 20:20:00,48.8,44.8,30.08,ENE,64,14.0,20.0,86,0.00,,---,0.00,VWS V14.01,2013-03-18 00:20:00,
2013-03-17 20:25:00,48.8,44.8,30.08,NE,56,16.0,17.0,86,0.00,,---,0.00,VWS V14.01,2013-03-18 00:25:00,
2013-03-17 20:30:00,48.7,44.7,30.07,ENE,57,17.0,18.0,86,0.00,,---,0.00,VWS V14.01,2013-03-18 00:30:00,
2013-03-17 20:35:00,48.6,44.6,30.08,East,83,8.0,17.0,86,0.00,,---,0.00,VWS V14.01,2013-03-18 00:35:00,
2013-03-17 20:40:00,48.7,44.7,30.08,ENE,60,12.0,17.0,86,0.00,,---,0.00,VWS V14.01,2013-03-18 00:40:00,
2013-03-17 20:45:00,48.7,44.7,30.08,NE,53,9.0,15.0,86,0.00,,---,0.00,VWS V14.01,2013-03-18 00:45:00,
2013-03-17 20:50:00,48.7,44.7,30.09,ENE,78,13.0,13.0,86,0.00,,---,0.00,VWS V14.01,2013-03-18 00:50:00,
2013-03-17 20:55:00,48.7,44.7,30.09,East,89,13.0,16.0,86,0.00,,---,0.00,VWS V14.01,2013-03-18 00:55:00,
2013-03-17 21:00:00,48.7,44.7,30.09,ENE,62,12.0,17.0,86,0.00,,---,0.00,VWS V14.01,2013-03-18 01:00:00,
2013-03-17 21:05:00,48.6,44.3,30.09,ENE,78,10.0,18.0,85,0.00,,---,0.00,VWS V14.01,2013-03-18 01:05:00,
2013-03-17 21:10:00,48.6,44.3,30.08,ENE,59,14.0,16.0,85,0.00,,---,0.00,VWS V14.01,2013-03-18 01:10:00,
2013-03-17 21:15:00,48.6,44.3,30.09,East,88,9.0,16.0,85,0.00,,---,0.00,VWS V14.01,2013-03-18 01:15:00,
2013-03-17 21:20:00,48.5,44.2,30.09,ENE,68,11.0,13.0,85,0.00,,---,0.00,VWS V14.01,2013-03-18 01:20:00,
2013-03-17 21:25:00,48.4,44.1,30.09,NE,55,15.0,19.0,85,0.00,,---,0.00,VWS V14.01,2013-03-18 01:25:00,
2013-03-17 21:30:00,48.3,44.0,30.09,NE,53,12.0,18.0,85,0.00,,---,0.00,VWS V14.01,2013-03-18 01:30:00,
2013-03-17 21:35:00,48.3,44.3,30.09,East,91,14.0,19.0,86,0.00,,---,0.00,VWS V14.01,2013-03-18 01:35:00,
2013-03-17 21:40:00,48.3,44.0,30.09,ENE,65,18.0,20.0,85,0.00,,---,0.00,VWS V14.01,2013-03-18 01:40:00,
2013-03-17 21:45:00,48.3,44.0,30.09,ENE,59,17.0,24.0,85,0.00,,---,0.00,VWS V14.01,2013-03-18 01:45:00,
2013-03-17 21:50:00,48.4,44.1,30.09,ENE,75,11.0,21.0,85,0.00,,---,0.00,VWS V14.01,2013-03-18 01:50:00,
2013-03-17 21:55:00,48.3,44.0,30.09,ENE,78,12.0,15.0,85,0.00,,---,0.00,VWS V14.01,2013-03-18 01:55:00,
2013-03-17 22:00:00,48.3,44.0,30.09,ENE,59,16.0,20.0,85,0.00,,---,0.00,VWS V14.01,2013-03-18 02:00:00,
2013-03-17 22:05:00,48.1,43.8,30.09,ENE,69,13.0,20.0,85,0.00,,---,0.00,VWS V14.01,2013-03-18 02:05:00,
2013-03-17 22:10:00,48.0,43.7,30.10,ENE,67,12.0,22.0,85,0.00,,---,0.00,VWS V14.01,2013-03-18 02:10:00,
2013-03-17 22:15:00,47.9,43.6,30.10,East,80,15.0,23.0,85,0.00,,---,0.00,VWS V14.01,2013-03-18 02:15:00,
2013-03-17 22:20:00,47.8,43.5,30.11,ENE,63,17.0,21.0,85,0.00,,---,0.00,VWS V14.01,2013-03-18 02:20:00,
2013-03-17 22:24:00,47.8,43.5,30.11,ENE,57,18.0,18.0,85,0.00,,---,0.00,VWS V14.01,2013-03-18 02:24:00,
2013-03-17 22:29:00,47.8,43.5,30.11,ENE,64,17.0,21.0,85,0.00,,---,0.00,VWS V14.01,2013-03-18 02:29:00,
2013-03-17 22:34:00,47.8,43.2,30.12,ENE,74,13.0,21.0,84,0.00,,---,0.00,VWS V14.01,2013-03-18 02:34:00,
2013-03-17 22:39:00,47.5,42.6,30.12,ENE,77,16.0,23.0,83,0.00,,---,0.00,VWS V14.01,2013-03-18 02:39:00,
2013-03-17 22:44:00,47.5,42.6,30.11,East,84,19.0,19.0,83,0.00,,---,0.00,VWS V14.01,2013-03-18 02:44:00,
2013-03-17 22:49:00,47.5,42.6,30.12,ENE,77,14.0,20.0,83,0.00,,---,0.00,VWS V14.01,2013-03-18 02:49:00,
2013-03-17 22:54:00,47.5,42.6,30.11,ENE,76,22.0,22.0,83,0.00,,---,0.00,VWS V14.01,2013-03-18 02:54:00,
2013-03-17 22:59:00,47.5,42.3,30.11,ENE,74,14.0,20.0,82,0.00,,---,0.00,VWS V14.01,2013-03-18 02:59:00,
2013-03-17 23:04:00,47.6,42.7,30.11,East,87,22.0,23.0,83,0.00,,---,0.00,VWS V14.01,2013-03-18 03:04:00,
2013-03-17 23:09:00,47.6,42.7,30.11,ENE,76,18.0,22.0,83,0.00,,---,0.00,VWS V14.01,2013-03-18 03:09:00,
2013-03-17 23:14:00,47.6,42.7,30.11,East,88,13.0,17.0,83,0.00,,---,0.00,VWS V14.01,2013-03-18 03:14:00,
2013-03-17 23:19:00,47.6,42.7,30.11,ENE,63,13.0,19.0,83,0.00,,---,0.00,VWS V14.01,2013-03-18 03:19:00,
2013-03-17 23:24:00,47.6,42.7,30.11,East,79,17.0,17.0,83,0.00,,---,0.00,VWS V14.01,2013-03-18 03:24:00,
2013-03-17 23:29:00,47.7,43.1,30.11,East,80,15.0,17.0,84,0.00,,---,0.00,VWS V14.01,2013-03-18 03:29:00,
2013-03-17 23:34:00,47.7,43.1,30.11,East,90,13.0,19.0,84,0.00,,---,0.00,VWS V14.01,2013-03-18 03:34:00,
2013-03-17 23:39:00,47.7,43.1,30.11,ENE,78,14.0,20.0,84,0.00,,---,0.00,VWS V14.01,2013-03-18 03:39:00,
2013-03-17 23:44:00,47.8,43.2,30.11,East,86,17.0,21.0,84,0.00,,---,0.00,VWS V14.01,2013-03-18 03:44:00,
2013-03-17 23:49:00,47.9,43.6,30.11,ENE,74,16.0,21.0,85,0.00,,---,0.00,VWS V14.01,2013-03-18 03:49:00,
2013-03-17 23:54:00,48.0,43.7,30.10,East,82,19.0,23.0,85,0.00,,---,0.00,VWS V14.01,2013-03-18 03:54:00,
2013-03-17 23:59:00,48.0,43.7,30.10,East,84,18.0,22.0,85,0.00,,---,0.00,VWS V14.01,2013-03-18 03:59:00,